MST,Max TemperatureF,Mean TemperatureF,Min TemperatureF,Max Dew PointF,MeanDew PointF,Min DewpointF,Max Humidity, Mean Humidity, Min Humidity, Max Sea Level PressureIn, Mean Sea Level PressureIn, Min Sea Level PressureIn, Max VisibilityMiles, Mean VisibilityMiles, Min VisibilityMiles, Max Wind SpeedMPH, Mean Wind SpeedMPH, Max Gust SpeedMPH,PrecipitationIn, CloudCover, Events, WindDirDegrees
2012-12-1,68,53,37,26,23,19,54,37,19,29.97,29.84,29.69,,,,23,11,29,0.00,,,313
2012-12-2,67,51,34,25,22,14,64,41,18,30.01,29.83,29.59,,,,18,9,23,0.00,,,228
2012-12-3,60,47,34,25,20,13,48,34,19,30.15,29.90,29.58,,,,33,12,39,0.00,,,1
2012-12-4,59,43,26,27,24,17,68,49,30,30.35,30.23,30.14,,,,20,11,26,0.00,,,227
2012-12-5,69,50,31,26,23,18,70,43,15,30.13,29.93,29.68,,,,18,9,22,0.00,,,245
2012-12-6,57,43,29,32,24,15,51,38,24,29.92,29.84,29.68,,,,28,14,33,0.00,,,39
2012-12-7,57,40,23,25,18,13,68,46,24,29.96,29.86,29.75,,,,18,7,22,0.00,,,358
2012-12-8,50,35,19,30,23,13,92,67,42,29.92,29.78,29.62,,,,31,12,38,0.00,,,209
2012-12-9,31,20,8,17,8,-1,74,57,39,30.30,30.11,29.89,,,,30,19,36,0.00,,,5
2012-12-10,44,24,4,5,2,-1,76,47,18,30.22,30.04,29.91,,,,20,8,23,0.00,,,304
2012-12-11,41,27,13,18,9,5,73,50,27,30.14,30.03,29.91,,,,17,10,21,0.00,,,264
2012-12-12,63,41,18,11,8,5,56,33,10,29.91,29.87,29.81,,,,17,9,21,0.00,,,250
2012-12-13,64,45,26,14,10,4,36,24,12,30.01,29.90,29.82,,,,14,7,17,0.00,,,250
2012-12-14,49,42,34,40,28,14,92,63,33,29.83,29.61,29.40,,,,28,12,33,0.10,,,235
2012-12-15,55,39,23,27,23,19,81,55,29,29.75,29.67,29.55,,,,22,8,28,0.00,,,305
2012-12-16,39,30,20,29,23,17,88,76,63,29.87,29.73,29.57,,,,20,6,28,0.00,,,340
2012-12-17,57,39,20,19,15,11,88,53,17,29.88,29.75,29.62,,,,21,8,26,0.00,,,281
2012-12-18,51,41,30,19,14,12,47,34,21,29.82,29.70,29.56,,,,24,12,30,0.00,,,177
2012-12-19,42,28,14,25,16,4,92,66,40,30.19,29.72,29.47,,,,47,23,58,0.05,,,329
2012-12-20,45,28,10,16,6,-3,64,41,18,30.40,30.32,30.22,,,,23,10,69,0.00,,,288
2012-12-21,57,37,16,17,10,4,67,40,12,30.30,30.17,30.01,,,,14,7,16,0.00,,,241
2012-12-22,61,40,19,14,10,5,67,39,10,30.02,29.97,29.90,,,,21,9,25,0.00,,,332
2012-12-23,54,35,15,12,8,4,67,41,14,30.05,29.94,29.85,,,,23,9,29,0.00,,,317
2012-12-24,43,29,14,17,14,10,88,59,30,29.95,29.84,29.69,,,,26,14,33,0.00,,,157
2012-12-25,16,8,0,10,4,-4,88,78,67,30.38,30.23,29.93,,,,30,16,35,0.06,,,3
2012-12-26,27,13,-2,18,11,-6,84,76,68,30.28,29.97,29.65,,,,30,17,36,0.00,,,209
2012-12-27,31,19,7,20,13,5,92,77,62,29.99,29.81,29.61,,,,20,11,22,0.00,,,4
2012-12-28,35,24,12,17,12,8,88,65,41,30.23,30.08,29.97,,,,21,10,24,0.00,,,330
2012-12-29,43,27,10,18,10,1,76,47,18,30.36,30.21,29.97,,,,29,12,37,0.00,,,237
2012-12-30,50,39,28,23,17,12,78,52,26,30.02,29.92,29.84,,,,31,14,40,0.00,,,209
2012-12-31,28,20,12,17,16,11,92,80,68,30.16,30.01,29.90,,,,20,14,23,0.29,,,8